Location: Detroit
(42.3310°N, 83.0460°W)
Time: 20:37:22
(UTC-04:00)

A-11 Canister half - Pass Details

Date: 16 February 2023
Orbit: 1526 x 1682 km, 47.3° (Epoch: 29 March)

Event Time Altitude Azimuth Distance (km) Brightness Sun altitude
Rises 11:27:45 0° 285° (WNW) 4,702 11.2 32.5°
Reaches altitude 10° 11:33:17 10° 260° (W) 3,740 11.0 32.9°
Maximum altitude 11:36:44 12° 237° (WSW) 3,558 11.2 33.1°
Drops below altitude 10° 11:40:13 10° 215° (SW) 3,775 11.6 33.3°
Sets 11:45:56 0° 189° (S) 4,793 12.4 33.7°
